Flag for Greece

Past Weather in Patras, Greece — Yesterday and Last 2 Weeks

Now
68 °F

Passing clouds.


Feels Like: 68 °F
Forecast: 74 / 60 °F
Wind: 3 mph from North

Location: Araxos Airport
Current Time: Sep 28, 2020 at 2:47:10 am
Latest Report: Sep 28, 2020 at 1:50 am
Visibility: N/A
Pressure29.95 "Hg
Humidity: 69%
Dew Point: 57 °F
Location of PatrasLocation

Past Weather in Patras — Graph

°F

Patras Temperature Yesterday

Maximum temperature yesterday: 79 °F (at 12:20 pm)
Minimum temperature yesterday: 61 °F (at 7:50 am)
Average temperature yesterday: 72 °F

High & Low Weather Summary for the Past Weeks

 TemperatureHumidityPressure
High93 °F (Sep 13, 3:20 pm)100% (Sep 17, 4:20 pm)30.09 "Hg (Sep 17, 4:20 pm)
Low59 °F (Sep 22, 7:20 am)20% (Sep 15, 12:50 pm)29.56 "Hg (Sep 26, 6:20 am)
Average77 °F61%29.92 "Hg
* Reported Sep 13 12:50 am — Sep 28 12:50 am, Patras. Weather by CustomWeather, © 2020

Note: Actual official high and low records may vary slightly from our data, if they occured in-between our weather recording intervals... More about our weather records

Patras Weather History for the Previous 24 Hours

Scroll right to see more
 ConditionsComfort  
Time TempWeatherWind HumidityBarometerVisibility
12:50 am
Mon, Sep 28
64 °FPassing clouds.5 mph78%29.95 "HgN/A
11:50 pm
Sun, Sep 27
68 °FPassing clouds.5 mph69%29.95 "HgN/A
10:50 pm68 °FPassing clouds.No wind69%29.98 "HgN/A
9:50 pm68 °FPassing clouds.3 mph73%29.98 "HgN/A
8:50 pm68 °FPassing clouds.3 mph73%29.95 "HgN/A
8:20 pm70 °FPassing clouds.3 mph69%29.95 "HgN/A
7:50 pm70 °FPassing clouds.3 mph69%29.95 "HgN/A
7:20 pm73 °FPassing clouds.6 mph61%29.95 "HgN/A
6:50 pm73 °FPassing clouds.6 mph61%29.95 "HgN/A
6:20 pm75 °FPassing clouds.9 mph57%29.95 "HgN/A
5:50 pm77 °FPassing clouds.12 mph54%29.92 "HgN/A
5:20 pm79 °FPassing clouds.12 mph54%29.92 "HgN/A
4:50 pm79 °FPassing clouds.12 mph54%29.92 "HgN/A
4:20 pm79 °FPassing clouds.3 mph48%29.92 "HgN/A
3:50 pm79 °FPassing clouds.3 mph45%29.92 "HgN/A
3:20 pm79 °FPassing clouds.3 mph48%29.92 "HgN/A
2:50 pm79 °FPassing clouds.3 mph48%29.92 "HgN/A
2:20 pm79 °FPassing clouds.3 mph42%29.92 "HgN/A
1:50 pm77 °FPassing clouds.3 mph54%29.92 "HgN/A
1:20 pm79 °FPassing clouds.3 mph45%29.92 "HgN/A
12:50 pm77 °FPassing clouds.3 mph47%29.92 "HgN/A
12:20 pm79 °FPassing clouds.3 mph39%29.92 "HgN/A
11:50 am77 °FPassing clouds.3 mph44%29.92 "HgN/A
11:20 am75 °FPassing clouds.3 mph50%29.92 "HgN/A
10:50 am75 °FPassing clouds.3 mph54%29.92 "HgN/A
10:20 am73 °FPassing clouds.3 mph57%29.89 "HgN/A
9:50 am73 °FPassing clouds.3 mph57%29.89 "HgN/A
9:20 am72 °FPassing clouds.3 mph61%29.89 "HgN/A
8:50 am68 °FPassing clouds.7 mph69%29.86 "HgN/A
8:20 am63 °FPassing clouds.No wind83%29.86 "HgN/A
7:50 am61 °FPassing clouds.No wind88%29.86 "HgN/A
7:20 am63 °FPassing clouds.No wind77%29.83 "HgN/A
6:50 am64 °FClear.No wind73%29.83 "Hg10 mi
6:20 am64 °FClear.No wind73%29.83 "Hg10 mi
5:50 am63 °FClear.No wind77%29.83 "Hg10 mi
3:50 am64 °FClear.No wind73%29.80 "Hg10 mi
Weather by CustomWeather, © 2020

See weather overview